Miscellaneous Local Product
Issued by NWS Hastings, NE

Home | Current Version | Previous Version | Graphics & Text | Print | Product List | Glossary On
Versions: 1 2 3 4 5 6 7 8 9 10 11 12 13 14 15 16 17 18 19 20 21 22 23 24 25 26 27 28 29 30 31 32 33 34 35 36 37 38 39 40 41 42 43 44 45 46 47 48 49 50
000
AXUS43 KGID 240002
MISGRI

GID CWA HOURLY WEATHER ROUNDUP
NATIONAL WEATHER SERVICE HASTINGS NE
700 PM CDT WED APR 23 2014

NOTE: "FAIR" INDICATES FEW OR NO CLOUDS BELOW 12,000 FEET WITH NO
SIGNIFICANT WEATHER AND/OR OBSTRUCTIONS TO VISIBILITY.

...SOUTH CENTRAL NEBRASKA...

CITY           SKY/WX    TMP DP  RH WIND       PRES   REMARKS
GRAND ISLAND   TSTM      65  56  72 SE17      29.48F
HASTINGS       CLOUDY    64  57  78 NE7       29.48F THUNDER
KEARNEY        CLOUDY    64  55  72 S20G52    29.46S THUNDER
ORD            MOSUNNY   80  32  17 N15       29.47F
YORK           LGT RAIN  64  54  68 E22       29.54F
AURORA         TSTM      65  57  75 SE15      29.52R
LEXINGTON      MOSUNNY   77  38  24 N18       29.47F
HOLDREGE       TSTM      64  54  68 E8        29.46F
HEBRON         PTSUNNY   80  46  29 S21G30    29.50F

...NEBRASKA PANHANDLE...

CITY           SKY/WX    TMP DP  RH WIND       PRES   REMARKS
CHADRON        CLOUDY    63  32  31 NW9       29.67R
ALLIANCE       CLOUDY    61  15  16 NW15G25   29.67R
SCOTTSBLUFF    CLOUDY    61  13  15 W16       29.69R
SIDNEY         LGT RAIN  57  26  30 NW26G37   29.74R

...WESTERN AND NORTH CENTRAL NEBRASKA...

CITY           SKY/WX    TMP DP  RH WIND       PRES   REMARKS
VALENTINE      MOSUNNY   68  44  42 NW30G39   29.58R
AINSWORTH      SUNNY     74  22  14 W21G26    29.56S
ONEILL         MOSUNNY   76  39  25 NW18      29.52R
BROKEN BOW     SUNNY     75  29  18 N21       29.51F
IMPERIAL       PTSUNNY   71  24  17 N26G36    29.54F
NORTH PLATTE   PTSUNNY   70  31  23 N18       29.52F
MCCOOK         MOSUNNY   76  39  26 N16       29.47S

...EASTERN NEBRASKA...

CITY           SKY/WX    TMP DP  RH WIND       PRES   REMARKS
NORFOLK        TSTM      58  47  66 SE16      29.59R
SO SIOUX CITY  MOSUNNY   60  42  51 SE18G29   29.65F
TEKAMAH        CLOUDY    58  43  57 SE17      29.65F
COLUMBUS       CLOUDY    63  46  55 SE15G31   29.54S
ALBION         CLOUDY    64  49  58 E14       29.53F
OMAHA EPPLEY   CLOUDY    56  44  64 SE25G39   29.63F
MILLARD        CLOUDY    56  44  64 SE14G21   29.64F
LINCOLN        CLOUDY    63  48  58 E10       29.59F
NEBRASKA CITY  CLOUDY    67  44  43 E15       29.64F
BEATRICE       CLOUDY    74  47  39 SE15      29.54F
FALLS CITY     CLOUDY    71  45  39 SE20G30   29.64F

...NORTHERN KANSAS...

CITY           SKY/WX    TMP DP  RH WIND       PRES   REMARKS
GOODLAND       PTSUNNY   73  39  29 N16       29.51S
HILL CITY      CLOUDY    78  50  37 S25G39    29.42F
PHILLIPSBURG   SUNNY     81  46  30 S24G33    29.45R
SMITH CENTER   SUNNY     75  50  41 S25G32    29.46F
BELOIT         SUNNY     81  46  30 S20G32    29.47F
HAYS           CLOUDY   N/A N/A N/A S38G49    29.46F
RUSSELL        CLOUDY    82  51  34 S30G44    29.47F
CONCORDIA      PTSUNNY   80  48  32 S16       29.51F
SALINA         CLOUDY    83  46  27 S28G36    29.53F
TOPEKA         MOSUNNY   80  45  28 S17G30    29.64F



USA.gov is the U.S. government's official web portal to all federal, state and local government web resources and services.